Regional Weather Roundup
Issued by NWS

Home | Current Version | Previous Version | Graphics & Text | Print | Product List | Glossary On
Versions: 1 2 3 4 5 6 7 8 9 10 11 12 13 14 15 16 17 18 19 20 21 22 23 24 25 26 27 28 29 30 31 32 33 34 35 36 37 38 39 40 41 42 43 44 45 46 47 48 49 50
943
ASUS43 KMKX 140059
RWRWI

WISCONSIN REGIONAL WEATHER ROUNDUP
NATIONAL WEATHER SERVICE MILWAUKEE/SULLIVAN WI
700 PM CST SAT FEB 13 2016

NOTE: "FAIR" INDICATES FEW OR NO CLOUDS BELOW 12,000 FEET WITH NO
SIGNIFICANT WEATHER AND/OR OBSTRUCTIONS TO VISIBILITY.

WIZ001-002-006>008-014>016-023>028-140200-
NORTHWEST WISCONSIN

CITY           SKY/WX    TMP DP  RH WIND       PRES   REMARKS
SUPERIOR ARPT  CLOUDY     2  -8  60 CALM      30.44S
ASHLAND        CLOUDY    -5 -14  65 SE3       30.43S
HAYWARD        CLOUDY    -5 -14  65 NE3       30.39F
SIREN          CLOUDY     0 -13  54 CALM      30.42S
CUMBERLAND     CLOUDY     1 -15  46 CALM      30.40R
RICE LAKE      CLOUDY     1 -12  53 CALM      30.43S
CHETEK         CLOUDY    -1 -13  57 CALM      30.43R
LADYSMITH      CLOUDY     3 -13  46 CALM      30.42S
EAU CLAIRE     NOT AVBL
MENOMONIE      CLOUDY     1 -17  42 SE3       30.45S
NEW RICHMOND   CLOUDY     1 -12  54 CALM      30.43S
OSCEOLA        CLOUDY     4 -10  51 SE3       30.46S
$$

WIZ003>005-009-010-017-018-140200-
NORTH CENTRAL WISCONSIN

CITY           SKY/WX    TMP DP  RH WIND       PRES   REMARKS
MANITOWISH WTR CLOUDY    -6 -12  74 CALM      30.35S
ARBOR VITAE    CLOUDY     1  -8  63 CALM      30.35F
WOODRUFF       CLOUDY     1  -8  63 CALM      30.35F
RHINELANDER    CLOUDY    -2 -13  59 CALM      30.36F
EAGLE RIVER    CLOUDY    -4 -12  68 CALM      30.35S
LAND O LAKES   CLOUDY    -6 -10  83 CALM      30.35F
PHILLIPS       CLOUDY     2 -12  52 SW3       30.37S
TOMAHAWK       CLOUDY    -4 -13  65 CALM      30.38S
MEDFORD        CLOUDY    -2 -11  66 CALM      30.37F
MERRILL        CLOUDY     2 -10  56 CALM      30.41S
$$

WIZ029-030-035-036-043>047-140200-
CENTRAL WISCONSIN

CITY           SKY/WX    TMP DP  RH WIND       PRES   REMARKS
WAUSAU         CLOUDY     3 -10  54 CALM      30.41S
MOSINEE        CLEAR      1 -11  55 VRB3      30.42F
MARSHFIELD     CLOUDY     2 -12  52 E3        30.39F
STEVENS POINT  CLOUDY    -1 -12  60 CALM      30.44F
WAUPACA        PTCLDY     7 -10  45 W3        30.47F
WAUTOMA        NOT AVBL
WISC RAPIDS    CLOUDY     0 -10  63 CALM      30.45F
CAMP DOUGLAS   CLOUDY    -1  -9  69 CALM      30.45F
$$

WIZ011>013-019>022-031-037>040-048>050-140200-
NORTHEAST WISCONSIN

CITY           SKY/WX    TMP DP  RH WIND       PRES   REMARKS
ANTIGO         CLOUDY     1  -9  63 CALM      30.38S
SHAWANO        CLEAR     10  -6  47 CALM      30.46S
OCONTO         CLEAR      8  -6  52 SW5       30.47S WCI  -1
STURGEON BAY   CLEAR      7  -8  51 SW6       30.48S WCI  -3
GREEN BAY      CLOUDY     6  -7  54 SW5       30.47F WCI  -3
MANITOWOC      NOT AVBL
APPLETON       PTCLDY     7 -11  43 SW5       30.44F WCI  -2
CLINTONVILLE   CLOUDY     7  -8  51 SW5       30.46S WCI  -2
OSHKOSH        CLOUDY     2  -9  60 S5        30.46F WCI  -8
$$

WIZ032>034-041-042-053>061-140200-
SOUTHWEST WISCONSIN

CITY           SKY/WX    TMP DP  RH WIND       PRES   REMARKS
LA CROSSE      CLOUDY     4  -7  60 CALM      30.47F
SPARTA         CLOUDY     1 -10  62 CALM      30.47F
VIROQUA        CLOUDY     7 -11  44 S3        30.41F
BOSCOBEL       CLOUDY     8  -8  48 CALM      30.49F
PRAIRIE DU CHI CLOUDY     8  -7  52 CALM      30.49F
PLATTEVILLE    CLOUDY     7  -5  57 SE3       30.46F
$$

WIZ056-057-062-063-064-067-068-140200-
SOUTH CENTRAL WISCONSIN

CITY           SKY/WX    TMP DP  RH WIND       PRES   REMARKS
REEDSBURG      CLOUDY     6 -10  46 CALM      30.46F
BARABOO/DELLS  CLOUDY     4 -10  51 CALM      30.46S
LONE ROCK      NOT AVBL
MINERAL POINT  CLOUDY     9  -8  47 CALM      30.44F
MADISON        CLOUDY     6  -8  52 CALM      30.47F
MIDDLETON      CLOUDY     5  -4  66 CALM      30.47F
WATERTOWN      CLOUDY     8  -6  53 CALM      30.48F
MONROE         CLOUDY    10  -6  48 CALM      30.45F
JANESVILLE     CLEAR     12  -6  44 CALM      30.48F
$$

WIZ051-052-058>065-066-070>072-140200-
SOUTHEAST WISCONSIN

CITY           SKY/WX    TMP DP  RH WIND       PRES   REMARKS
MILWAUKEE      PTCLDY     8  -7  50 N3        30.50F
WAUKESHA       CLEAR      3  -8  60 N3        30.49S
MILWAUKEE/TIMM CLEAR      7  -8  51 W5        30.50F WCI  -2
RACINE         CLEAR      9  -8  46 CALM      30.51F
BURLINGTON     CLOUDY     4  -6  62 CALM      30.49S
KENOSHA        CLEAR      9  -6  50 CALM      30.49F
FOND DU LAC    CLOUDY     5  -8  55 S3        30.47F
SHEBOYGAN      CLEAR      3  -6  66 CALM      30.48F
WEST BEND      CLOUDY     7  -8  51 CALM      30.47F
JUNEAU         CLOUDY     5  -6  60 S3        30.48F
$$

LSZ147-162-140200-
LAKE SUPERIOR

STATION/POSITION TIME  TEMP    WIND        PRES    WAVE
                       AIR SEA DIR/SP/G            HT/PER
                 (UTC) (F)     (DEG/KT/KT) (MB)    (FT/S)
DEVILS ISLAND    0000    8     150/  4/  4 1032.9F
SAXON HARBOR     0000    1                 1030.5F
$$

LMZ867-665-643>646-140200-
LAKE MICHIGAN

STATION/POSITION TIME  TEMP    WIND        PRES    WAVE
                       AIR SEA DIR/SP/G            HT/PER
                 (UTC) (F)     (DEG/KT/KT) (MB)    (FT/S)
CHAMBERS ISLAND  0000    8     180/  3/  7 1031.5S
SISTER BAY       0019    6        CALM       N/A
ALGOMA LAKESHORE 0011             CALM       N/A
KEWAUNEE LAKESHO 0000    8                 1031.5F
SHEBOYGAN LAKESH 0000    9     270/  6/  7 1034.9F
PORT WASHINGTON  0000    9     290/  3/  6 1034.2
MILWAUKEE LAKESH 0010   11     290/  5/  6   N/A
KENOSHA   LAKESH 0000   12     300/  5/  7 1032.8F
$$

TC  - TEMPERATURE IN CELSIUS
VSB - VISIBILITY IN STATUTE MILES
WCI - WIND CHILL INDEX
HX  - HEAT INDEX





USA.gov is the U.S. government's official web portal to all federal, state and local government web resources and services.